Regional Weather Roundup
Issued by NWS

Home | Current Version | Previous Version | Text Only | Print | Product List | Glossary On
Versions: 1 2 3 4 5 6 7 8 9 10 11 12 13 14 15 16 17 18 19 20 21 22 23 24 25 26 27 28 29 30 31 32 33 34 35 36 37 38 39 40 41 42 43 44 45 46 47 48 49 50
000
ASUS43 KMKX 240511
RWRWI

WISCONSIN REGIONAL WEATHER ROUNDUP
NATIONAL WEATHER SERVICE MILWAUKEE/SULLIVAN WI
1200 AM CDT FRI OCT 24 2014

NOTE: "FAIR" INDICATES FEW OR NO CLOUDS BELOW 12,000 FEET WITH NO
SIGNIFICANT WEATHER AND/OR OBSTRUCTIONS TO VISIBILITY.

WIZ001-002-006>008-014>016-023>028-240600-
NORTHWEST WISCONSIN

CITY           SKY/WX    TMP DP  RH WIND       PRES   REMARKS
SUPERIOR ARPT  FOG       35  35 100 CALM      29.94R VSB<1/4
ASHLAND        FOG       39  38  96 SW5       29.96S VSB 1/4
HAYWARD        CLOUDY    49  48  97 S8        29.98S FOG
SIREN          CLOUDY    49  48  97 S8        29.97R FOG
CUMBERLAND     FOG       48  46  93 S5        29.99R VSB 1
RICE LAKE      CLOUDY    50  48  95 S7        30.01S FOG
CHETEK         CLOUDY    50  49  98 S3        30.00S FOG
LADYSMITH      CLOUDY    49  48  96 S5        30.02S FOG
EAU CLAIRE     CLOUDY    50  48  93 S7        30.00F FOG
MENOMONIE      CLOUDY    51  50  96 SE6       30.00S FOG
NEW RICHMOND   FOG       49  49 100 S7        29.98S VSB 3/4
OSCEOLA        CLOUDY    49  49 100 S6        30.00R FOG
$$

WIZ003>005-009-010-017-018-240600-
NORTH CENTRAL WISCONSIN

CITY           SKY/WX    TMP DP  RH WIND       PRES   REMARKS
MANITOWISH WTR CLOUDY    44  44 100 SW5       29.99F FOG
ARBOR VITAE    FOG       46  45  97 SW6       30.00S VSB 1
WOODRUFF       FOG       46  45  97 SW6       30.00S VSB 1
RHINELANDER    CLOUDY    44  44 100 SW7       30.01S FOG
EAGLE RIVER    FOG       44  44 100 SW7       29.99F VSB 1
LAND O LAKES   FOG       45  45 100 SW6       30.00S VSB 3/4
PHILLIPS       CLOUDY    46  46 100 SW3       29.99F FOG
TOMAHAWK       CLOUDY    45  44  97 CALM      30.01F FOG
MEDFORD        FOG       45  45  99 W5        30.01F VSB 1
MERRILL        CLOUDY    46  46 100 W5        30.01F FOG
$$

WIZ029-030-035-036-043>047-240600-
CENTRAL WISCONSIN

CITY           SKY/WX    TMP DP  RH WIND       PRES   REMARKS
WAUSAU         CLOUDY    46  46 100 W3        30.01S FOG
MOSINEE        FOG       45  45 100 SW3       30.02S VSB 1/4
MARSHFIELD     FOG       47  46  97 W5        30.02S VSB 1/2
STEVENS POINT  CLOUDY    45  45  99 CALM      30.02S FOG
WAUPACA        CLOUDY    48  47  97 SE3       30.02F FOG
WAUTOMA        FOG       46  46 100 CALM      30.03F VSB 1
WISC RAPIDS    CLOUDY    47  46  97 SW3       30.04S FOG
CAMP DOUGLAS   CLOUDY    46  46 100 CALM      30.03S FOG
$$

WIZ011>013-019>022-031-037>040-048>050-240600-
NORTHEAST WISCONSIN

CITY           SKY/WX    TMP DP  RH WIND       PRES   REMARKS
ANTIGO         CLOUDY    44  44 100 W3        30.01S FOG
SHAWANO        CLOUDY    48  47  94 CALM      30.02F FOG
OCONTO         CLOUDY    48  48 100 CALM      30.01F
STURGEON BAY   CLOUDY    48  46  93 SW6       30.02S
GREEN BAY      CLOUDY    49  48  97 SW3       30.02S FOG
MANITOWOC      CLOUDY    50  49  96 S6        30.02F FOG
APPLETON       CLOUDY    46  46 100 W6        30.03R FOG
CLINTONVILLE   CLOUDY    45  45 100 S3        30.02S FOG
OSHKOSH        CLOUDY    49  48  97 CALM      30.02S FOG
$$

WIZ032>034-041-042-053>061-240600-
SOUTHWEST WISCONSIN

CITY           SKY/WX    TMP DP  RH WIND       PRES   REMARKS
LA CROSSE      CLOUDY    51  49  92 S7        30.03S FOG
SPARTA         CLOUDY    47  47 100 CALM      30.04F FOG
VIROQUA        CLOUDY    48  48 100 SW5       30.03S VSB 1/4
BOSCOBEL       CLOUDY    50  49  96 SW3       30.05F FOG
PRAIRIE DU CHI CLOUDY    50  49  95 CALM      30.04F FOG
PLATTEVILLE    CLOUDY    50  50  97 SW5       30.05S
$$

WIZ056-057-062-063-064-067-068-240600-
SOUTH CENTRAL WISCONSIN

CITY           SKY/WX    TMP DP  RH WIND       PRES   REMARKS
REEDSBURG      CLOUDY    47  47  99 CALM      30.04S FOG
BARABOO/DELLS  CLOUDY    47  46  95 CALM      30.04S FOG
LONE ROCK      FOG       52  48  86 CALM      30.04F VSB 3/4
MINERAL POINT  FOG       50  48  93 CALM      30.04S VSB 1/4
MADISON        CLOUDY    51  48  89 W5        30.04S
MIDDLETON      CLOUDY    51  51  97 CALM      30.04F
WATERTOWN      CLOUDY    50  50 100 W5        30.02F FOG
MONROE         CLOUDY    50  50 100 W6        30.04F FOG
JANESVILLE     CLOUDY    52  50  93 CALM      30.04F
$$

WIZ051-052-058>065-066-070>072-240600-
SOUTHEAST WISCONSIN

CITY           SKY/WX    TMP DP  RH WIND       PRES   REMARKS
MILWAUKEE      CLOUDY    51  48  89 SE6       30.04F
WAUKESHA       CLOUDY    46  46 100 SW3       30.04F
MILWAUKEE/TIMM CLOUDY    50  45  81 SW6       30.04F
RACINE         CLOUDY    51  48  89 CALM      30.06F
BURLINGTON     CLOUDY    47  47  99 CALM      30.04F FOG
KENOSHA        CLOUDY    51  49  92 CALM      30.05F
FOND DU LAC    CLOUDY    50  48  93 W5        30.03S FOG
SHEBOYGAN      CLOUDY    50  48  93 S5        30.01F FOG
WEST BEND      CLOUDY    50  46  87 SW7       30.02F
JUNEAU         FOG       49  49  99 SW5       30.04S VSB 1/2
$$

LSZ147-162-240600-
LAKE SUPERIOR

STATION/POSITION TIME  TEMP    WIND        PRES    WAVE
                       AIR SEA DIR/SP/G            HT/PER
                 (UTC) (F)     (DEG/KT/KT) (MB)    (FT/S)
W MID LAKE BUOY  0450   48 46  200/ 10/ 10 1014.3S   1
DEVILS ISLAND    0500   50     190/  6/  8 1014.2F
PORT WING        0440   48     180/  4/  5 1013.9S
SAXON HARBOR     0400   43        CALM     1014.6F
$$

LMZ867-665-643>646-240600-
LAKE MICHIGAN

STATION/POSITION TIME  TEMP    WIND        PRES    WAVE
                       AIR SEA DIR/SP/G            HT/PER
                 (UTC) (F)     (DEG/KT/KT) (MB)    (FT/S)
CHAMBERS ISLAND  0400   50     180/  4/  6 1016.3F
N MID LAKE BUOY  0450   51 51  210/ 12/ 14 1016.6F   3/ 5
NORTHPORT PIER   0400   49     180/  3/  5 1016.3F
SISTER BAY       0328          190/  8/  9   N/A
KEWAUNEE LAKESHO 0400   50     180/  6/  6 1016.1F
SHEBOYGAN LAKESH 0500   52 52  200/  7/  8 1017.0F
PORT WASHINGTON  0440   52     200/  3/  4 1017.3F
ATWATER BUOY     0500   52     160/  6/  8 1018.0F
MILWAUKEE LAKESH 0400   52     200/  6/  7   N/A
S MID LAKE BUOY  0450   55 54  200/ 12/ 12 1017.9F
KENOSHA   LAKESH 0500   52     190/  4/  4 1017.3F
$$

TC  - TEMPERATURE IN CELSIUS
VSB - VISIBILITY IN STATUTE MILES
WCI - WIND CHILL INDEX
HX  - HEAT INDEX




USA.gov is the U.S. government's official web portal to all federal, state and local government web resources and services.